User: anonymous   Login
Location: Unspecified
(0.0000°N, 0.0000°E)
Time: 15:18:20
(UTC+00:00)
Language:

Transit 2A - Orbit

View from above orbital plane
View from above orbital plane
View from above satellite
View from above satellite

Ground track
Ground track

The orbit data is extracted from the following two-line orbital elements,

1 00045U 60007A   21101.87861505 -.00000023  00000-0  21121-4 0  9994
2 00045  66.6944 314.4513 0247944  98.6187 264.3087 14.33714512108613
Epoch (UTC): 11 April 2021 21:05:12
Eccentricity: 0.0247944
inclination: 66.6944°
perigee height: 602 km
apogee height: 957 km
right ascension of ascending node: 314.4513°
argument of perigee: 98.6187°
revolutions per day: 14.33714512
mean anomaly at epoch: 264.3087°
orbit number at epoch: 10861

The dashed part of the orbit path shows where the satellite is in the earth's shadow,  

DLR